IRIDIUM 104

Last updated on Tue Sep 22 2026 00:03:20 GMT+0000 (Coordinated Universal Time)

1 41922U 17003F 26264.35067873 .00000161 00000+0 50387-4 0 9992 2 41922 86.3951 48.2450 0002413 92.3718 267.7754 14.34220191507057
UTC large
Height (km)
Speed (km/s)
/
Latitude / Longitude
Inclination (degrees)
Orbital Period (minutes)
Azimuth
Elevation
Range (km)
Doppler Factor

Next 0 passes for location: London (51.5072 / 0.1276)

No passes found over London.
IRIDIUM 104